STARLINK-31845 (60129 NORAD) Tracking and Keplerian Element Data

This shows tracking and keplerian element data for the satellite.

Feedback or suggestion? Click here.




ElementValue
Catalog60129
NameSTARLINK-31845
Epoch Orbit1711
Epoch Day286.64084812
Epoch Year2024
RAAN252.0985
Inclination53.16
Eccentricity0.0001237
Argument of Perigee99.05
Mean Anonmoly261.0645
Mean Motion15.39668849
Decay Rate2.108E-05
L11 60129U 24118S 24286.64084812 .00002108 00000+0 62575-4 0 9998
L22 60129 53.1600 252.0985 0001237 99.0500 261.0645 15.39668849 17115



Live tracking and technical data element details for STARLINK-31845 (NORAD 60129). STARLINK-31845 can be tracked NOW for your location showing map with azimuth and elevation plus other details from your city location.







IsCatalogInMostPopularTable: catalog: 60129, numindb: 11
Update: records affected: 1



GetName: 60129 STARLINK-31845

Hit Count: updated at: Thu, 23 Jan 2025 15:01:52 GMT